NOAA 16 DEB

Satellite information

Favourite Embed

Satellite Type and Status

DEBRISIN ORBIT

Key statistics

Satellite NOAA 16 DEB at a glance.

Uptime

9164

Days in orbit

Revolutions

≈ 14.3

Per day

Orbit

SSO

Sun Synchronous Orbit

Inclination

98.9

Latest

Satellite identification and parameters

Extended collection of information and parameters for NOAA 16 DEB.

Object identification

Identified? True

Debris? True

Object name: NOAA 16 DEB

International designator: 2000-055JD

Object number (NORAD): 41360

Object ID (CCSDS): 41360

Country: UNITED STATES OF AMERICA (US)

Current information (Y/N): Y

RCS size: SMALL

Orbital parameters

Period: 100.667 minutes

Inclination: 98.8878 deg

SMA: 7168.325 km

Apoapsis: 805.644 km

Periapsis: 774.736 km

RAAN: 50.1562 deg

Eccentricy: 0.0021559

Argument of periapsis: 347.374 deg

Mean anomaly: 12.6899 deg

Mean motion: 14.30461639 rev/day

Mean motion (dot): 0.00007449 rev/day2

B* drag term: 0.0028691 1/REarth

Two-line elements (TLE)

Creation date: Oct. 21, 2025, 11:56 p.m.

Reference frame: TEME

Reference center: EARTH

Epoch: Oct. 21, 2025, 1:50 p.m. UTC

TLE line 0: 0 NOAA 16 DEB

TLE line 1: 1 41360U 00055JD 25294.57661973 .00007449 00000-0 28691-2 0 9992

TLE line 2: 2 41360 98.8878 50.1562 0021559 347.3740 12.6899 14.30461639503081

Live tracking on map

Real-time ground track for satellite NOAA 16 DEB.

In-orbit conjunctions

A list of the most updated potential collisions computed for object NOAA 16 DEB.

Target Orbit TCA Probability of collision Miss distance Type
COSMOS 1302 LEO 2025-10-10 09:33:09 0.0001217944 324.0 (m) PAYLOAD
NOAA 16 DEB SSO 2025-06-20 20:12:26 0.000172858 229.0 (m) DEBRIS
CZ-6A DEB LEO 2025-02-21 00:27:52 0.0002716961 248.0 (m) DEBRIS
CZ-6A DEB LEO 2024-12-20 07:02:58 0.0001323766 293.0 (m) DEBRIS

Associated space launch

The NOAA K, L and M POES satellites begin the fifth generation of improved environmental monitoring in support of NOAA missions. The instrument payload has significant improvements and additions/deletions. The instrument changes have effected the spacecraft subsystems and data formats.

NOAA 16 DEB was lifted into orbit during the mission ‘Titan II SLV | NOAA 16’, on board a Titan II SLV space rocket.

The launch took place on Sept. 21, 2000, 10:22 a.m. from Space Launch Complex 4W.

For more information about the launch, click the button.

Launch to space Titan II SLV | NOAA 16
Titan II SLV | NOAA 16

Agency: N/A

Status: Launch Successful

Launch date: Sept. 21, 2000, 10:22 a.m. UTC

Rocket: Titan II SLV

Launch pad: Space Launch Complex 4W

Location: Vandenberg SFB, CA, USA

...

Latest news about this satellite

There are no fresh news available about this satellite. Check back as we update our databases every day.


Newsletter sign-up

Weekly statistics, charts and insights to help you stay on top of the space industry.